| time (UTC) | temp F | wind direction | speed MPH | gust MPH | rain 1hr in | rain 24hr in | rain mn in | humidity % | barometer mb |
| 20260902023003 | 60 | 99 | 0.0 | 3.0 | 0.00 | 0.11 | 0.11 | 92 | 1019.0 |
| 20260902022003 | 60 | 273 | 1.0 | 3.0 | 0.00 | 0.11 | 0.11 | 92 | 1018.8 |
| 20260902021003 | 60 | 289 | 1.0 | 3.0 | 0.00 | 0.11 | 0.11 | 91 | 1018.8 |
| 20260902020003 | 61 | 167 | 0.0 | 3.0 | 0.00 | 0.11 | 0.11 | 91 | 1018.6 |
| 20260902015003 | 61 | 158 | 2.0 | 3.0 | 0.00 | 0.11 | 0.11 | 91 | 1018.8 |
| 20260902014003 | 61 | 105 | 0.0 | 2.0 | 0.00 | 0.11 | 0.11 | 91 | 1018.7 |
| 20260902013003 | 61 | 191 | 0.0 | 3.0 | 0.00 | 0.11 | 0.11 | 91 | 1018.9 |
| 20260902012003 | 62 | 348 | 2.0 | 3.0 | 0.00 | 0.11 | 0.11 | 91 | 1018.8 |
| 20260902011003 | 62 | 28 | 0.0 | 3.0 | 0.00 | 0.11 | 0.11 | 92 | 1018.6 |
| 20260902010003 | 62 | 124 | 0.0 | 3.0 | 0.00 | 0.11 | 0.11 | 92 | 1018.7 |
| 20260902005003 | 62 | 137 | 0.0 | 3.0 | 0.00 | 0.11 | 0.11 | 92 | 1018.9 |
| 20260902004003 | 63 | 306 | 1.0 | 4.0 | 0.00 | 0.11 | 0.11 | 92 | 1018.7 |
| 20260902003003 | 63 | 89 | 2.0 | 4.0 | 0.00 | 0.11 | 0.11 | 93 | 1018.9 |
| 20260902002003 | 63 | 30 | 0.0 | 3.0 | 0.00 | 0.11 | 0.11 | 93 | 1018.8 |
| 20260902001003 | 63 | 99 | 1.0 | 4.0 | 0.00 | 0.11 | 0.11 | 92 | 1018.7 |
| 20260902000003 | 63 | 265 | 1.0 | 9.0 | 0.00 | 0.11 | 0.11 | 92 | 1018.7 |
| 20260901235024 | 63 | 132 | 2.0 | 9.0 | 0.00 | 0.11 | 0.11 | 92 | 1018.5 |
| 20260901234024 | 63 | 179 | 6.0 | 9.0 | 0.00 | 0.11 | 0.11 | 92 | 1018.4 |
| 20260901233003 | 63 | 200 | 3.0 | 7.0 | 0.00 | 0.11 | 0.11 | 93 | 1018.4 |
| 20260901232004 | 64 | 159 | 4.0 | 7.0 | 0.00 | 0.11 | 0.11 | 93 | 1018.5 |
| 20260901231003 | 64 | 146 | 2.0 | 6.0 | 0.00 | 0.11 | 0.11 | 93 | 1018.5 |
| 20260901230004 | 64 | 119 | 3.0 | 6.0 | 0.00 | 0.11 | 0.11 | 93 | 1018.3 |
| 20260901225003 | 64 | 160 | 2.0 | 5.0 | 0.00 | 0.11 | 0.11 | 92 | 1018.3 |
| 20260901224024 | 64 | 184 | 2.0 | 5.0 | 0.00 | 0.11 | 0.11 | 92 | 1018.3 |
| 20260901223003 | 64 | 132 | 2.0 | 6.0 | 0.00 | 0.11 | 0.11 | 91 | 1018.5 |
| 20260901222003 | 64 | 156 | 3.0 | 6.0 | 0.00 | 0.11 | 0.11 | 90 | 1018.5 |
| 20260901221003 | 64 | 165 | 5.0 | 11.0 | 0.00 | 0.11 | 0.11 | 90 | 1018.6 |
| 20260901220003 | 64 | 178 | 4.0 | 16.0 | 0.00 | 0.11 | 0.11 | 90 | 1018.8 |
| 20260901215024 | 64 | 173 | 2.0 | 16.0 | 0.00 | 0.11 | 0.11 | 90 | 1018.6 |
| 20260901214005 | 64 | 174 | 9.0 | 16.0 | 0.00 | 0.11 | 0.11 | 90 | 1018.8 |
| 20260901213004 | 64 | 184 | 8.0 | 16.0 | 0.00 | 0.11 | 0.11 | 90 | 1018.9 |
| 20260901212005 | 64 | 178 | 5.0 | 9.0 | 0.00 | 0.11 | 0.11 | 91 | 1018.6 |
| 20260901211004 | 65 | 166 | 4.0 | 12.0 | 0.00 | 0.11 | 0.11 | 89 | 1018.3 |
| 20260901210004 | 65 | 161 | 3.0 | 12.0 | 0.00 | 0.11 | 0.11 | 90 | 1018.2 |
| 20260901205003 | 65 | 169 | 4.0 | 8.0 | 0.00 | 0.11 | 0.11 | 91 | 1018.3 |
| 20260901204003 | 65 | 155 | 2.0 | 8.0 | 0.00 | 0.11 | 0.11 | 90 | 1018.3 |
| 20260901203003 | 65 | 132 | 3.0 | 8.0 | 0.00 | 0.11 | 0.11 | 90 | 1018.2 |
| 20260901202003 | 65 | 169 | 5.0 | 8.0 | 0.00 | 0.11 | 0.11 | 91 | 1018.1 |
| 20260901201024 | 65 | 179 | 2.0 | 7.0 | 0.01 | 0.11 | 0.11 | 90 | 1018.0 |
| 20260901200002 | 65 | 165 | 4.0 | 7.0 | 0.02 | 0.11 | 0.11 | 91 | 1017.8 |
| 20260901195003 | 65 | 163 | 3.0 | 6.0 | 0.02 | 0.11 | 0.11 | 90 | 1018.2 |
| 20260901194003 | 65 | 156 | 4.0 | 6.0 | 0.03 | 0.11 | 0.11 | 89 | 1017.8 |
| 20260901193003 | 65 | 116 | 3.0 | 6.0 | 0.05 | 0.11 | 0.11 | 88 | 1017.8 |
| 20260901192003 | 64 | 148 | 3.0 | 9.0 | 0.07 | 0.10 | 0.10 | 89 | 1018.1 |
| 20260901191003 | 64 | 164 | 4.0 | 9.0 | 0.07 | 0.10 | 0.10 | 88 | 1018.0 |
| 20260901190003 | 64 | 132 | 4.0 | 12.0 | 0.06 | 0.09 | 0.09 | 88 | 1017.7 |
| 20260901185003 | 65 | 156 | 3.0 | 12.0 | 0.06 | 0.09 | 0.09 | 88 | 1017.4 |
| 20260901184024 | 65 | 135 | 3.0 | 12.0 | 0.05 | 0.08 | 0.08 | 88 | 1017.8 |
| 20260901183003 | 65 | 186 | 5.0 | 12.0 | 0.03 | 0.06 | 0.06 | 87 | 1017.5 |
| 20260901182003 | 65 | 164 | 4.0 | 12.0 | 0.00 | 0.03 | 0.03 | 85 | 1018.0 |
| 20260901181003 | 66 | 166 | 2.0 | 15.0 | 0.00 | 0.03 | 0.03 | 83 | 1018.0 |
| 20260901180024 | 66 | 198 | 6.0 | 15.0 | 0.00 | 0.03 | 0.03 | 82 | 1017.8 |
| 20260901175002 | 66 | 158 | 7.0 | 15.0 | 0.00 | 0.03 | 0.03 | 82 | 1017.8 |
| 20260901174003 | 66 | 163 | 5.0 | 11.0 | 0.00 | 0.03 | 0.03 | 81 | 1017.7 |
| 20260901173024 | 67 | 194 | 5.0 | 12.0 | 0.00 | 0.03 | 0.03 | 82 | 1017.7 |
| 20260901172003 | 67 | 201 | 3.0 | 12.0 | 0.00 | 0.03 | 0.03 | 81 | 1018.1 |
| 20260901171003 | 67 | 191 | 5.0 | 12.0 | 0.00 | 0.03 | 0.03 | 81 | 1017.7 |
| 20260901170003 | 67 | 205 | 7.0 | 12.0 | 0.00 | 0.03 | 0.03 | 77 | 1017.6 |
| 20260901165003 | 68 | 189 | 6.0 | 11.0 | 0.00 | 0.03 | 0.03 | 75 | 1017.7 |
| 20260901164024 | 69 | 210 | 3.0 | 13.0 | 0.00 | 0.03 | 0.03 | 74 | 1017.8 |
| 20260901163003 | 70 | 172 | 5.0 | 13.0 | 0.00 | 0.03 | 0.03 | 72 | 1017.7 |
| 20260901162003 | 70 | 196 | 4.0 | 11.0 | 0.00 | 0.03 | 0.03 | 75 | 1017.6 |
| 20260901161002 | 71 | 199 | 5.0 | 11.0 | 0.01 | 0.03 | 0.03 | 77 | 1017.7 |
| 20260901160025 | 71 | 183 | 2.0 | 12.0 | 0.02 | 0.03 | 0.03 | 81 | 1017.6 |
| 20260901155003 | 71 | 177 | 9.0 | 14.0 | 0.02 | 0.03 | 0.03 | 82 | 1017.7 |
| 20260901154003 | 72 | 185 | 8.0 | 14.0 | 0.02 | 0.03 | 0.03 | 82 | 1018.0 |
| 20260901153003 | 72 | 177 | 8.0 | 16.0 | 0.02 | 0.03 | 0.03 | 84 | 1017.5 |
| 20260901152003 | 71 | 178 | 5.0 | 16.0 | 0.02 | 0.02 | 0.02 | 84 | 1017.6 |
| 20260901151002 | 72 | 180 | 6.0 | 12.0 | 0.01 | 0.02 | 0.02 | 80 | 1017.8 |
| 20260901150003 | 72 | 174 | 7.0 | 12.0 | 0.00 | 0.00 | 0.00 | 82 | 1017.8 |
| 20260901145003 | 72 | 161 | 6.0 | 12.0 | 0.00 | 0.00 | 0.00 | 82 | 1018.5 |
| 20260901144003 | 72 | 173 | 6.0 | 12.0 | 0.00 | 0.00 | 0.00 | 83 | 1018.3 |
| 20260901143025 | 72 | 205 | 2.0 | 6.0 | 0.00 | 0.00 | 0.00 | 87 | 1018.1 |
| 20260901142003 | 71 | 141 | 3.0 | 7.0 | 0.00 | 0.00 | 0.00 | 87 | 1018.2 |
| 20260901141003 | 70 | 142 | 6.0 | 7.0 | 0.00 | 0.00 | 0.00 | 86 | 1018.0 |
| 20260901140003 | 70 | 189 | 4.0 | 7.0 | 0.00 | 0.00 | 0.00 | 87 | 1018.0 |
| 20260901135003 | 70 | 152 | 2.0 | 7.0 | 0.00 | 0.00 | 0.00 | 87 | 1017.8 |
| 20260901134003 | 70 | 132 | 2.0 | 7.0 | 0.00 | 0.00 | 0.00 | 87 | 1018.1 |
| 20260901133003 | 70 | 183 | 5.0 | 7.0 | 0.00 | 0.00 | 0.00 | 88 | 1017.8 |
| 20260901132003 | 70 | 159 | 2.0 | 7.0 | 0.00 | 0.00 | 0.00 | 87 | 1018.0 |
| 20260901131003 | 70 | 157 | 3.0 | 8.0 | 0.00 | 0.00 | 0.00 | 86 | 1017.6 |
| 20260901130024 | 70 | 135 | 2.0 | 8.0 | 0.00 | 0.00 | 0.00 | 85 | 1017.7 |
| 20260901125003 | 70 | 167 | 4.0 | 8.0 | 0.00 | 0.00 | 0.00 | 87 | 1018.0 |
| 20260901124024 | 70 | 161 | 5.0 | 7.0 | 0.00 | 0.00 | 0.00 | 88 | 1017.8 |
| 20260901123004 | 70 | 152 | 2.0 | 6.0 | 0.00 | 0.00 | 0.00 | 88 | 1017.8 |
| 20260901122003 | 69 | 151 | 3.0 | 6.0 | 0.00 | 0.00 | 0.00 | 89 | 1017.6 |
| 20260901121003 | 69 | 119 | 2.0 | 6.0 | 0.00 | 0.00 | 0.00 | 90 | 1017.6 |
| 20260901120003 | 69 | 175 | 0.0 | 6.0 | 0.00 | 0.00 | 0.00 | 91 | 1017.7 |
| 20260901115003 | 68 | 184 | 0.0 | 6.0 | 0.00 | 0.00 | 0.00 | 91 | 1018.0 |
| 20260901114003 | 68 | 179 | 1.0 | 2.0 | 0.00 | 0.00 | 0.00 | 90 | 1017.8 |
| 20260901113003 | 68 | 327 | 1.0 | 3.0 | 0.00 | 0.00 | 0.00 | 90 | 1017.8 |
| 20260901112003 | 68 | 221 | 0.0 | 3.0 | 0.00 | 0.00 | 0.00 | 90 | 1017.6 |
| 20260901111003 | 67 | 168 | 0.0 | 3.0 | 0.00 | 0.00 | 0.00 | 89 | 1017.5 |
| 20260901110003 | 67 | 286 | 0.0 | 3.0 | 0.00 | 0.00 | 0.00 | 90 | 1017.7 |
| 20260901105003 | 67 | 210 | 0.0 | 3.0 | 0.00 | 0.00 | 0.00 | 90 | 1017.4 |
| 20260901104024 | 67 | 101 | 0.0 | 3.0 | 0.00 | 0.00 | 0.00 | 89 | 1017.4 |
| 20260901103024 | 67 | 207 | 2.0 | 3.0 | 0.00 | 0.00 | 0.00 | 89 | 1017.4 |
| 20260901102004 | 67 | 229 | 1.0 | 3.0 | 0.00 | 0.00 | 0.00 | 89 | 1017.2 |
| 20260901101003 | 67 | 154 | 0.0 | 3.0 | 0.00 | 0.00 | 0.00 | 88 | 1017.0 |
| 20260901100003 | 67 | 182 | 3.0 | 3.0 | 0.00 | 0.00 | 0.00 | 88 | 1017.0 |
| 20260901095003 | 67 | 116 | 0.0 | 3.0 | 0.00 | 0.00 | 0.00 | 88 | 1017.1 |
| 20260901094003 | 67 | 91 | 1.0 | 3.0 | 0.00 | 0.00 | 0.00 | 88 | 1016.9 |
| 20260901093003 | 67 | 92 | 1.0 | 3.0 | 0.00 | 0.00 | 0.00 | 88 | 1017.0 |
| 20260901092003 | 67 | 146 | 1.0 | 4.0 | 0.00 | 0.00 | 0.00 | 88 | 1017.1 |
| 20260901091003 | 67 | 127 | 2.0 | 4.0 | 0.00 | 0.00 | 0.00 | 88 | 1016.9 |
| 20260901090003 | 67 | 163 | 2.0 | 4.0 | 0.00 | 0.00 | 0.00 | 87 | 1017.0 |
| 20260901085003 | 67 | 157 | 2.0 | 4.0 | 0.00 | 0.00 | 0.00 | 86 | 1017.4 |
| 20260901084003 | 67 | 158 | 0.0 | 4.0 | 0.00 | 0.00 | 0.00 | 87 | 1017.6 |
| 20260901083003 | 67 | 120 | 1.0 | 3.0 | 0.00 | 0.00 | 0.00 | 87 | 1018.0 |
| 20260901082004 | 67 | 225 | 2.0 | 3.0 | 0.00 | 0.00 | 0.00 | 86 | 1018.3 |
| 20260901081003 | 67 | 141 | 2.0 | 4.0 | 0.00 | 0.00 | 0.00 | 86 | 1018.2 |
| 20260901080003 | 67 | 161 | 3.0 | 4.0 | 0.00 | 0.00 | 0.00 | 86 | 1017.8 |
| 20260901075024 | 67 | 189 | 3.0 | 4.0 | 0.00 | 0.00 | 0.00 | 86 | 1017.8 |
| 20260901074003 | 67 | 197 | 3.0 | 5.0 | 0.00 | 0.00 | 0.00 | 86 | 1017.8 |